This is the latest recevied weather packets stored in our database for station/object HB9KBJ-8. If no packets are shown the sender has not sent any weather packets the latest 10 day(s).
| Time | Temp. | Humidity | Pressure | Rain* | Wind** | Luminosity | Snow |
|---|---|---|---|---|---|---|---|
| 1777605443 | 5° C | 65% | 1024.2 hPa | 0 mm | - | 0 W/m² | - |
| 1777605143 | 4.44° C | 65% | 1024.2 hPa | 0 mm | - | 0 W/m² | - |
| 1777604840 | 5° C | 65% | 1024.2 hPa | 0 mm | - | 0 W/m² | - |
| 1777604534 | 5° C | 65% | 1024.2 hPa | 0 mm | - | 0 W/m² | - |
| 1777604234 | 5° C | 62% | 1024.2 hPa | 0 mm | - | 0 W/m² | - |
| 1777603951 | 5° C | 61% | 1024.2 hPa | 0 mm | - | 0 W/m² | - |
| 1777603647 | 5° C | 62% | 1024.2 hPa | 0 mm | - | 0 W/m² | - |
| 1777603344 | 5.56° C | 62% | 1024.2 hPa | 0 mm | - | 0 W/m² | - |
| 1777603044 | 5.56° C | 61% | 1024.2 hPa | 0 mm | - | 0 W/m² | - |
| 1777602744 | 5.56° C | 59% | 1024.3 hPa | 0 mm | - | 0 W/m² | - |
| 1777602441 | 5.56° C | 57% | 1024.3 hPa | 0 mm | - | 0 W/m² | - |
| 1777602137 | 6.11° C | 56% | 1024.3 hPa | 0 mm | - | 0 W/m² | - |
| 1777601852 | 6.11° C | 56% | 1024.2 hPa | 0 mm | - | 0 W/m² | - |
| 1777601545 | 6.11° C | 55% | 1024.2 hPa | 0 mm | - | 0 W/m² | - |
| 1777601240 | 6.67° C | 54% | 1024.2 hPa | 0 mm | - | 0 W/m² | - |
| 1777600943 | 6.67° C | 52% | 1024.2 hPa | 0 mm | - | 0 W/m² | - |
| 1777600635 | 7.22° C | 50% | 1024.1 hPa | 0 mm | - | 0 W/m² | - |
| 1777600348 | 7.22° C | 48% | 1024 hPa | 0 mm | - | 0 W/m² | - |
| 1777600045 | 7.22° C | 50% | 1024 hPa | 0 mm | - | 0 W/m² | - |
| 1777599746 | 7.78° C | 48% | 1024 hPa | 0 mm | - | 0 W/m² | - |
| 1777599439 | 7.78° C | 47% | 1024 hPa | 0 mm | - | 0 W/m² | - |
| 1777599132 | 8.33° C | 44% | 1023.9 hPa | 0 mm | - | 0 W/m² | - |
| 1777598850 | 8.33° C | 43% | 1023.9 hPa | 0 mm | - | 0 W/m² | - |
| 1777598544 | 8.33° C | 43% | 1024 hPa | 0 mm | - | 0 W/m² | - |
| 1777598237 | 8.33° C | 44% | 1024 hPa | 0 mm | - | 0 W/m² | - |
* Rain latest hour (hover to see other rain measurements)
** Current wind speed in m/s (hover to see current wind gust speed)